Regional Weather Roundup
Issued by NWS Upton, NY

Home | Current Version | Previous Version | Text Only | Print | Product List | Glossary On
Versions: 1 2 3 4 5 6 7 8 9 10 11 12 13 14 15 16 17 18 19 20 21 22 23 24 25 26 27 28 29 30 31 32 33 34 35 36 37 38 39 40 41 42 43 44 45 46 47 48 49 50
000
ASUS41 KOKX 270209
RWROKX

REGIONAL WEATHER ROUNDUP
NATIONAL WEATHER SERVICE NEW YORK NY
1000 PM EDT WED JUL 26 2017

NOTE: "FAIR" INDICATES FEW OR NO CLOUDS BELOW 12,000 FEET WITH NO
SIGNIFICANT WEATHER AND/OR OBSTRUCTIONS TO VISIBILITY.

NYZ071-072-176-178-NJZ106-104-270300-
NEW YORK CITY METRO AREA

CITY           SKY/WX    TMP DP  RH WIND       PRES   REMARKS
Central Park   CLEAR     68  56  65 S5        30.17S
Bronx Bot Gard   N/A     66  54  63 SE1       30.13F
LaGuardia APRT MOCLDY    70  58  65 S10       30.14S
Kennedy INTL   PTCLDY    68  60  75 S6        30.16R
Breezy Point     N/A     68 N/A N/A S7          N/A
Newark/Liberty MOCLDY    69  59  70 S8        30.14S
Teterboro      PTCLDY    69  54  58 S6        30.13S
$$

NYZ177-179-078>081-270300-
LONG ISLAND NEW YORK

CITY           SKY/WX    TMP DP  RH WIND       PRES   REMARKS
Jones Beach      N/A     68 N/A N/A S7          N/A
Matinecock PT    N/A     66 N/A N/A SW5         N/A
Farmingdale    PTCLDY    67  58  72 S5        30.15F
MacArthur/ISP  MOCLDY    67  58  72 S5        30.15S
Shirley        CLOUDY    64  60  87 SE3       30.15F
Mt Sinai Harb    N/A    N/A N/A N/A S6          N/A
Westhampton    CLOUDY    61  56  83 S3        30.17F
East Hampton   FAIR      59  57  94 CALM      30.15F
Montauk          N/A     66  62  87 CALM      30.17S
$$

NYZ052-065-067-270300-
HUDSON VALLEY

CITY           SKY/WX    TMP DP  RH WIND       PRES   REMARKS
White Plains   PTCLDY    63  55  75 SE3       30.15R
Larchmont Harb   N/A     68 N/A N/A S9          N/A
Croton O-T Hud   N/A     68 N/A N/A SE3         N/A
Newburgh       PTCLDY    68  59  73 VRB5      30.14S
Montgomery     PTCLDY    63  60  90 SW3       30.13R
Poughkeepsie   PTCLDY    66  59  78 CALM      30.12R
Albany         CLOUDY    70  60  70 S5        30.10S
$$

NJZ001-105-106-008-010-013-015-019>022-104-270300-
NEW JERSEY

CITY           SKY/WX    TMP DP  RH WIND       PRES   REMARKS
Newark/Liberty MOCLDY    69  59  70 S8        30.14S
Teterboro      PTCLDY    69  54  58 S6        30.13S
Caldwell       CLEAR     68  57  68 CALM      30.15R
Somerville     PTCLDY    67  61  81 CALM      30.12R
Linden         FAIR      69  57  66 CALM      30.14S
Perth Amboy      N/A     68 N/A N/A S7          N/A
Sussex         PTCLDY    64  58  80 W3        30.14R
Andover          N/A     66  55  67 VRB3      30.14S
Trenton        CLEAR     67  61  81 S6        30.14R
Millville      CLEAR     65  64  97 SE3       30.14S
Atlantic City  CLEAR     65  61  87 CALM      30.15S
Wrightstown    CLEAR     65  60  86 CALM      30.13R
Toms River     PTCLDY    63  60  90 CALM      30.16S
Belmar         PTCLDY    65  59  81 SE5       30.16S
$$

PAZ047>061-062-071-270300-
EASTERN PENNSYLVANIA

CITY           SKY/WX    TMP DP  RH WIND       PRES   REMARKS
Philadelphia   MOCLDY    70  61  73 SE8       30.15R
Allentown      CLOUDY    72  61  68 VRB3      30.13R
Scranton       PTCLDY    70  62  76 CALM      30.13R
$$

CTZ002-004>006-009-010-012-RIZ004-006-007-MAZ004-011-015-270300-
SOUTHERN NEW ENGLAND
 IN CT

CITY           SKY/WX    TMP DP  RH WIND       PRES   REMARKS
Bradley INTL   PTCLDY    69  58  67 S9        30.14R
Hartford       PTCLDY    68  58  70 S6        30.13S
Danbury        CLEAR     66  58  75 S6        30.16S
Wtrbury/Oxford PTCLDY    63  54  72 S6        30.17R
Bridgeport     PTCLDY    70  57  63 SW8       30.15S
Meriden        PTCLDY    65  58  78 CALM      30.15R
New Haven      PTCLDY    69  57  65 SW6       30.16R
Chester        FAIR      64  59  82 SW5       30.16S
Groton         PTCLDY    66  62  87 S9        30.14F
Wilimantic     MOCLDY    68  58  70 CALM      30.15R

 IN RI

CITY           SKY/WX    TMP DP  RH WIND       PRES   REMARKS
Providence     CLOUDY    66  60  81 S9        30.15S
Block Island   PTCLDY    65  60  84 SW5       30.17R
Westerly       CLOUDY    68  62  81 SW5       30.16S
 IN MA

CITY           SKY/WX    TMP DP  RH WIND       PRES   REMARKS
Boston         MOCLDY    69  58  67 S13       30.13R
Worcester      PTCLDY    64  54  69 SW12      30.14F
Westfield      PTCLDY    64  59  83 S7        30.12S
Provincetown   CLEAR     63  60  90 S9        30.15F
Nantucket      CLEAR     59  57  93 S6        30.17S
$$

ANZ330-335-338-340-345-350-353-355-270300-
COASTAL MARINE OBSERVATIONS


STATION/POSITION TIME  SKY/WX   TEMP    WIND        PRES    VSBY  WAVE
                                AIR SEA DIR/SP/G                  HT/PER
                 (UTC)          (F)     (DEG/KT/KT) (MB)    (MI)  (FT/S)
NY HARB ENTRANCE 0050            69 74  140/  6/  8 1020.7          2/10
20 S FIRE ISLAND 0150            68 74  160/  4/  6 1020.8          2/11
GREAT SOUTH BAY  0115            69 76  200/  6/ 10   N/A
23 SSW MONTAUK P 0150            68 74              1021.6          2/ 8
15 E BARNEGAT LI 0130               73                N/A           3/ 5
HUDSON CANYON    0050            68 73   90/  8/ 10 1020.2          2/ 5
KINGS POINT      0136            69 73  210/  8/ 10 1020.8
EXECUTION ROCKS  0145            69     190/  4/  6   N/A
CENTRAL LI SOUND 0130            69     190/ 12/ 12   N/A           1
EASTERN LI SOUND NOT AVBL
ROBBINS REEF     0148                   160/ 13/ 15 1021.4
$$


>>>>>>>>>>>>>>>>>>>>>>>>>>>> KEY <<<<<<<<<<<<<<<<<<<<<<<<<<<
>                                                          <
>     SKY/WX - Sky Condition/Present Weather               <
>     TMP    - Temperature in Fahrenheit                   <
>     DP     - Dew Point in Fahrenheit                     <
>     RH     - Relative Humidity in Percent                <
>     WIND   - Direction (from) and Speed in MPH           <
>     PRES   - Mean Sea Level Pressure (inches of Hg)      <
>     WCI    - Wind Chill Index                            <
>     VSB    - VISIBILITY IN MILES                         <
>     HX     - HEAT INDEX                                  <
>     TC     - TEMPERATURE IN CELSIUS                      <
>     VRB    - VARIABLE WIND DIRECTION                     <
>                                                          <
>>>>>>>>>>>>>>>>>>>>>>>>>>>> KEY <<<<<<<<<<<<<<<<<<<<<<<<<<<



USA.gov is the U.S. government's official web portal to all federal, state and local government web resources and services.